Weather History for Kelso-Longview, WA

Change the Weather History Date:

Monday, October 21, 2013

  Actual Average Record
Temperature  
Mean Temperature 53 °F -  
Max Temperature 62 °F 57 °F 77 °F (2003)
Min Temperature 44 °F 41 °F 35 °F (1997)
Degree Days  
Heating Degree Days 12    
Growing Degree Days 3 (Base 50)    
Moisture  
Dew Point 44 °F    
Average Humidity 78    
Maximum Humidity 87    
Minimum Humidity 59    
Precipitation  
Precipitation 0.00 in - - ()
Sea Level Pressure  
Sea Level Pressure 30.12 in    
Wind  
Wind Speed 5 mph (NNW)    
Max Wind Speed 10 mph    
Max Gust Speed 16 mph    
Visibility 10 miles    
Events      
Averages and records for this station are not official NWS values.
T = Trace of Precipitation, MM = Missing Value Source: NWS Daily Summary

Daily Weather History Graph

Daily Weather History Graph

Search for Another Location

Airport:

Trip Planner

Search our weather history database for the weather conditions in past years. The results will help you decide how hot, cold, wet, or windy it might be!

Date:

Astronomy

Oct. 21, 2013 Rise Set
Actual Time 7:37 AM PDT 6:14 PM PDT
Civil Twilight 7:06 AM PDT 6:44 PM PDT
Nautical Twilight 6:31 AM PDT 7:19 PM PDT
Astronomical Twilight 5:57 AM PDT 7:54 PM PDT
Moon 8:03 PM PDT (10/21) 10:25 AM PDT (10/21)
Length of Visible Light 11h 37m
Length of Day
10h 36m
Waning Gibbous, 92% of the Moon is Illuminated
Oct 21
Waning Gibbous
Oct 26
Last Quarter
Nov 3
New
Nov 9
First Quarter
Nov 17
Full

Hourly Weather History & Observations

Time (PDT) Temp. Dew Point Humidity Pressure Visibility Wind Dir Wind Speed Gust Speed Precip Events Conditions
12:15 AM 48.2 °F 44.6 °F 87% 30.15 in 7.0 mi North - - N/A   Overcast
12:35 AM 48.2 °F 42.8 °F 82% 30.15 in 7.0 mi North - - N/A   Overcast
12:55 AM 46.4 °F 42.8 °F 87% 30.15 in 7.0 mi North - - N/A   Overcast
1:15 AM 46.4 °F 42.8 °F 87% 30.15 in 7.0 mi North - - N/A   Overcast
1:35 AM 46.4 °F 42.8 °F 87% 30.16 in 8.0 mi North - - N/A   Overcast
1:55 AM 46.4 °F 42.8 °F 87% 30.16 in 9.0 mi North - - N/A   Overcast
2:15 AM 46.4 °F 42.8 °F 87% 30.16 in 10.0 mi North - - N/A   Overcast
2:35 AM 46.4 °F 42.8 °F 87% 30.16 in 10.0 mi North - - N/A   Overcast
2:55 AM 46.4 °F 42.8 °F 87% 30.16 in 10.0 mi North - - N/A   Overcast
3:15 AM 46.4 °F 42.8 °F 87% 30.15 in 10.0 mi North - - N/A   Overcast
3:35 AM 46.4 °F 42.8 °F 87% 30.15 in 10.0 mi North - - N/A   Overcast
3:55 AM 46.4 °F 42.8 °F 87% 30.15 in 10.0 mi North - - N/A   Overcast
4:15 AM 46.4 °F 42.8 °F 87% 30.15 in 10.0 mi North - - N/A   Overcast
4:35 AM 46.4 °F 42.8 °F 87% 30.15 in 10.0 mi Calm Calm - N/A   Overcast
4:55 AM 46.4 °F 42.8 °F 87% 30.15 in 10.0 mi Calm Calm - N/A   Overcast
5:15 AM 46.4 °F 42.8 °F 87% 30.15 in 10.0 mi North - - N/A   Overcast
5:35 AM 46.4 °F 41.0 °F 81% 30.14 in 10.0 mi North - - N/A   Overcast
5:55 AM 46.4 °F 41.0 °F 81% 30.14 in 10.0 mi North - - N/A   Overcast
6:15 AM 46.4 °F 41.0 °F 81% 30.14 in 10.0 mi North - - N/A   Overcast
6:35 AM 44.6 °F 41.0 °F 87% 30.14 in 10.0 mi North - - N/A   Overcast
6:55 AM 44.6 °F 41.0 °F 87% 30.14 in 10.0 mi North - - N/A   Overcast
7:15 AM 44.6 °F 41.0 °F 87% 30.14 in 10.0 mi North - - N/A   Overcast
7:35 AM 44.6 °F 41.0 °F 87% 30.14 in 10.0 mi North - - N/A   Overcast
7:55 AM 44.6 °F 41.0 °F 87% 30.15 in 10.0 mi North - - N/A   Overcast
8:15 AM 44.6 °F 41.0 °F 87% 30.15 in 10.0 mi North - - N/A   Overcast
8:35 AM 44.6 °F 39.2 °F 81% 30.15 in 10.0 mi North - - N/A   Overcast
8:55 AM 46.4 °F 39.2 °F 76% 30.16 in 10.0 mi North - - N/A   Overcast
9:15 AM 46.4 °F 39.2 °F 76% 30.16 in 10.0 mi North - - N/A   Overcast
9:35 AM 46.4 °F 41.0 °F 81% 30.16 in 10.0 mi North - - N/A   Overcast
9:55 AM 48.2 °F 41.0 °F 76% 30.16 in 10.0 mi North - - N/A   Mostly Cloudy
10:15 AM 48.2 °F 42.8 °F 82% 30.16 in 10.0 mi North - - N/A   Mostly Cloudy
10:35 AM 48.2 °F 42.8 °F 82% 30.16 in 10.0 mi North - - N/A   Mostly Cloudy
10:55 AM 50.0 °F 42.8 °F 76% 30.16 in 10.0 mi North - - N/A   Partly Cloudy
11:15 AM 50.0 °F 42.8 °F 76% 30.15 in 10.0 mi North - - N/A   Clear
11:35 AM 51.8 °F 42.8 °F 71% 30.15 in 10.0 mi North - - N/A   Clear
11:55 AM 51.8 °F 42.8 °F 71% 30.15 in 10.0 mi North - - N/A   Clear
12:15 PM 51.8 °F 44.6 °F 76% 30.14 in 10.0 mi North - - N/A   Clear
12:35 PM 53.6 °F 44.6 °F 72% 30.13 in 10.0 mi North - - N/A   Clear
12:55 PM 53.6 °F 44.6 °F 72% 30.13 in 10.0 mi NNW 9.2 mph - N/A   Clear
1:15 PM 53.6 °F 44.6 °F 72% 30.12 in 10.0 mi North 10.4 mph 16.1 mph N/A   Clear
1:35 PM 55.4 °F 44.6 °F 67% 30.11 in 10.0 mi NW 5.8 mph - N/A   Clear
1:55 PM 55.4 °F 46.4 °F 72% 30.10 in 10.0 mi NNW 6.9 mph - N/A   Clear
2:15 PM 57.2 °F 46.4 °F 67% 30.10 in 10.0 mi NNW 9.2 mph - N/A   Clear
2:35 PM 57.2 °F 46.4 °F 67% 30.09 in 10.0 mi NNW 10.4 mph - N/A   Clear
2:55 PM 59.0 °F 46.4 °F 63% 30.09 in 10.0 mi NNW 6.9 mph - N/A   Clear
3:15 PM 60.8 °F 46.4 °F 59% 30.08 in 10.0 mi NNW 9.2 mph - N/A   Clear
3:35 PM 60.8 °F 46.4 °F 59% 30.08 in 10.0 mi NNW 8.1 mph - N/A   Clear
3:55 PM 60.8 °F 46.4 °F 59% 30.08 in 10.0 mi NW 5.8 mph - N/A   Clear
4:15 PM 60.8 °F 46.4 °F 59% 30.07 in 10.0 mi NNW 8.1 mph - N/A   Clear
4:35 PM 62.6 °F 48.2 °F 59% 30.07 in 10.0 mi NNW 8.1 mph - N/A   Clear
4:55 PM 60.8 °F 48.2 °F 63% 30.07 in 10.0 mi NNW 9.2 mph - N/A   Clear
5:15 PM 60.8 °F 48.2 °F 63% 30.06 in 10.0 mi NNW 6.9 mph - N/A   Clear
5:35 PM 60.8 °F 48.2 °F 63% 30.06 in 10.0 mi NNW 9.2 mph - N/A   Clear
5:55 PM 60.8 °F 48.2 °F 63% 30.06 in 10.0 mi NNW 5.8 mph - N/A   Clear
6:15 PM 59.0 °F 48.2 °F 67% 30.06 in 10.0 mi NNW 6.9 mph - N/A   Clear
6:35 PM 57.2 °F 48.2 °F 72% 30.07 in 10.0 mi North 5.8 mph - N/A   Clear
6:55 PM 57.2 °F 48.2 °F 72% 30.06 in 10.0 mi NNW 3.5 mph - N/A   Clear
7:15 PM 55.4 °F 48.2 °F 77% 30.07 in 10.0 mi NNW 3.5 mph - N/A   Clear
7:35 PM 55.4 °F 46.4 °F 72% 30.07 in 10.0 mi NNW 4.6 mph - N/A   Clear
7:55 PM 53.6 °F 46.4 °F 77% 30.07 in 10.0 mi North 5.8 mph - N/A   Clear
8:15 PM 53.6 °F 46.4 °F 77% 30.07 in 10.0 mi NW 4.6 mph - N/A   Clear
8:35 PM 51.8 °F 44.6 °F 76% 30.08 in 10.0 mi NNW 4.6 mph - N/A   Clear
8:55 PM 51.8 °F 44.6 °F 76% 30.08 in 10.0 mi NW 4.6 mph - N/A   Clear
9:15 PM 51.8 °F 44.6 °F 76% 30.08 in 10.0 mi NNW 4.6 mph - N/A   Clear
9:35 PM 50.0 °F 44.6 °F 82% 30.08 in 10.0 mi NNW 4.6 mph - N/A   Clear
9:55 PM 50.0 °F 44.6 °F 82% 30.08 in 10.0 mi NNW 5.8 mph - N/A   Clear
10:15 PM 48.2 °F 44.6 °F 87% 30.08 in 10.0 mi North - - N/A   Clear
10:35 PM 48.2 °F 42.8 °F 82% 30.09 in 10.0 mi North - - N/A   Clear
10:55 PM 48.2 °F 42.8 °F 82% 30.09 in 10.0 mi North - - N/A   Clear
11:15 PM 48.2 °F 42.8 °F 82% 30.09 in 10.0 mi NNW 6.9 mph - N/A   Partly Cloudy
11:35 PM 48.2 °F 42.8 °F 82% 30.09 in 10.0 mi North - - N/A   Mostly Cloudy
11:55 PM 46.4 °F 42.8 °F 87% 30.09 in 10.0 mi North - - N/A   Overcast